Regional Weather Roundup
Issued by NWS

Home | Current Version | Previous Version | Graphics & Text | Print | Product List | Glossary On
Versions: 1 2 3 4 5 6 7 8 9 10 11 12 13 14 15 16 17 18 19 20 21 22 23 24 25 26 27 28 29 30 31 32 33 34 35 36 37 38 39 40 41 42 43 44 45 46 47 48 49 50
000
ASUS45 KBOU 050107
RWRCO

WEATHER ROUNDUP FOR COLORADO
NATIONAL WEATHER SERVICE DENVER/BOULDER CO
700 PM MDT TUE AUG 04 2015

NOTE: "FAIR" INDICATES FEW OR NO CLOUDS BELOW 12000 FEET WITH NO
SIGNIFICANT WEATHER AND/OR OBSTRUCTIONS TO VISIBILITY.

COZ001>005-013-030-031-050200-
...NORTHWEST COLORADO...

CITY           SKY/WX    TMP DP  RH WIND       PRES   REMARKS
CRAIG          NOT AVBL
HAYDEN         MOSUNNY   79  37  22 W8        30.20S
MEEKER         MOSUNNY   82  33  17 VRB7G17   30.19S
MOUNT WERNER   NOT AVBL
STEAMBOAT SPGS   N/A    N/A N/A N/A MISG        N/A
WALDEN         MOSUNNY   70  30  23 W16G24    30.31S
$$

COZ006>008-011-050200-
...WEST CENTRAL VALLEYS...

CITY           SKY/WX    TMP DP  RH WIND       PRES   REMARKS
GRAND JUNCTION MOSUNNY   89  35  14 NW6       30.04F
MONTROSE       MOSUNNY   85  42  22 E3        30.15F
EAGLE          MOSUNNY   81  36  19 S15       30.21S
RIFLE          MOSUNNY   86  40  19 W9        30.11S
DELTA          MOSUNNY   92  35  13 SW8       30.09S
NUCLA          MOSUNNY   82  41  23 S14       30.20S
$$

COZ017>023-064>068-050200-
...SOUTHWEST COLORADO...

CITY           SKY/WX    TMP DP  RH WIND       PRES   REMARKS
DURANGO        SUNNY     83  32  16 W14       30.21F
CORTEZ         SUNNY     84  42  22 N9        30.16F
PAGOSA SPRINGS SUNNY     80  28  14 W10       30.28S
TELLURIDE      MOSUNNY   70  36  29 W5        30.45F
WOLF CREEK PAS NOT AVBL
$$

COZ009-010-012-014-032>034-037-058>063-050200-
...CENTRAL COLORADO...

CITY           SKY/WX    TMP DP  RH WIND       PRES   REMARKS
ASPEN          MOSUNNY   73  43  33 NW5       30.31S
BUENA VISTA    PTSUNNY   75  34  22 W12       30.30S
COPPER MTN     PTSUNNY   59  32  36 W20G25    30.64R
BERTHOUD PASS  PTSUNNY   48  37  66 NW25G38   30.66S
COTTONWOOD PAS MOSUNNY   68  30  24 NW8       30.47S
GUNNISON       MOSUNNY   75  34  22 W9G17     30.32S
KREMMLING      SUNNY     77  27  15 NW13      30.28F
LEADVILLE      CLOUDY    63  36  36 NW9       30.46F
MONARCH PASS   MOSUNNY   57  32  38 W21G30    30.73F
SALIDA         MOSUNNY   80  32  17 W10G20    30.34S
SUNLIGHT       PTSUNNY   61  43  51 CALM      30.57F
WILKERSON PASS NOT AVBL
$$

COZ069>075-050200-
...SAN LUIS VALLEY/SANGRE DE CRISTO MOUNTAINS...

CITY           SKY/WX    TMP DP  RH WIND       PRES   REMARKS
ALAMOSA        MOSUNNY   78  41  26 W5        30.26S
LA VETA PASS   MOSUNNY   63  32  31 MISG      30.49R
SAGUACHE       SUNNY     75  39  27 NW15      30.31S
$$

COZ035-036-038>040-050200-
...NORTHERN COLORADO FRONT RANGE...

CITY           SKY/WX    TMP DP  RH WIND       PRES   REMARKS
DENVER INTL AP MOSUNNY   86  41  20 VRB7      30.07S
DMNS CITY PARK   N/A     85  31  14 NW15G22   30.07R
AURORA         MOSUNNY   86  41  20 N8        30.10R
FRONT RANGE AP MOSUNNY   82  39  21 N8        30.09R
ERIE MUNI ARPT SUNNY     88  34  14 N8        30.05S
BOULDER MUN AP SUNNY     88  32  13 W13G24    30.06S
CENTENNIAL     MOSUNNY   85  33  15 N15       30.10R
BROOMFIELD     PTSUNNY   86  32  14 W15       30.10R
FORT COLLINS   SUNNY     86  43  22 NW13      30.02S
LONGMONT       SUNNY     89  34  14 NW17G24   30.06R
$$

COZ041-046-047-076>085-087-088-050200-
...PIKES PEAK/PALMER DIVIDE AND SOUTHERN FOOTHILLS...

CITY           SKY/WX    TMP DP  RH WIND       PRES   REMARKS
COLO. SPRINGS  PTSUNNY   82  46  28 NE7       30.14R
A. F. ACADEMY  PTSUNNY   77  46  33 NW5       30.16R
ELLICOTT       PTSUNNY  N/A N/A N/A NE5       30.12R
FALCON         PTSUNNY   74  48  39 CALM      30.20S
FORT CARSON    PTSUNNY   84  45  25 NE7       30.10R
LIMON          MOSUNNY   75  55  49 E14       30.10R
MONUMENT HILL  PTSUNNY   70  45  40 E10       30.22R
TRINIDAD       MOSUNNY   88  39  17 NW13      30.08R
$$

COZ042>045-048>051-090-091-050200-
...NORTHEAST COLORADO...

CITY           SKY/WX    TMP DP  RH WIND       PRES   REMARKS
GREELEY ARPT   SUNNY     90  48  24 SE7       30.03R
AKRON          MOSUNNY   75  54  47 E10       30.05R
BURLINGTON     CLEAR     79  54  41 NE16      30.03R
WRAY           MOCLDY    75  59  57 CALM      30.00S
STERLING       MOSUNNY   77  57  50 E6        29.99F
HOLYOKE        PTSUNNY   73  64  73 CALM      30.00S
FORT MORGAN    PTSUNNY   75  51  42 E10       30.04S
$$

COZ086-089-092>099-050200-
...SOUTHEAST COLORADO...

CITY           SKY/WX    TMP DP  RH WIND       PRES   REMARKS
PUEBLO         MOSUNNY   95  35  12 W13       29.97S
LA JUNTA       SUNNY     90  52  27 E10       29.94S
LAMAR          CLEAR     91  53  27 E10       29.90S
SPRINGFIELD      N/A     90  44  20 NE6       29.96S
$$


USA.gov is the U.S. government's official web portal to all federal, state and local government web resources and services.